Location: Bushey
(51.6333°N, 0.3667°W)
Time: 18:56:48
(UTC+00:00)

Meteor 1-11 Rocket - Pass Details

Date: 03 March 2021
Orbit: 831 x 916 km, 81.2° (Epoch: 17 April)

Event Time Altitude Azimuth Distance (km) Brightness Sun altitude
Rises 19:24:52 0° 169° (S) 3,460 6.7 -16.2°
Reaches altitude 10° 19:27:25 10° 163° (SSE) 2,513 5.9 -16.6°
Maximum altitude 19:32:47 44° 93° (E) 1,176 4.0 -17.4°
Drops below altitude 10° 19:38:04 10° 23° (NNE) 2,480 6.0 -18.2°
Sets 19:40:33 0° 18° (NNE) 3,410 6.8 -18.5°
